Preview of NWS' New Version of Forecast
This preview is not operational and should not be used for support decisions.

Regional Weather Roundup (RWR)

Issued by National Weather Service (NWS)

                            
565 
NZUS52 KFFC 200510
RWROBS
WEATHER ROUNDUP FOR GEORGIA
NATIONAL WEATHER SERVICE PEACHTREE CITY GA
100 AM EDT WED JUN 20 2018

NOTE: "FAIR" INDICATES FEW OR NO CLOUDS BELOW 12,000 FEET WITH NO
SIGNIFICANT WEATHER AND/OR OBSTRUCTIONS TO VISIBILITY. 

* = USE WITH CAUTION. THE STATIONS MARKED WITH AN ASTERISK MAY NOT
REPORT WEATHER SUCH AS PRECIPITATION, FOG, OR THUNDER AND ARE NOT 
QUALITY CONTROLLED BY NWS.

THE REMARK "TC" DENOTES TEMPERATURE READING IN DEGREES CELSIUS.

GAZ001>058-200600-
NORTH GEORGIA
  
CITY           SKY/WX    TMP DP  RH WIND       PRES   REMARKS
ATLANTA        FAIR      80  69  69 NW8       29.99S HX  83           
ATHENS         FAIR      77  72  84 NW5       29.95F                  
CHAMBLEE       FAIR      80  70  71 NW7       29.99S HX  83           
PEACHTREE CITY FAIR      78  72  81 W5        29.99S HX  80           
ROME           FAIR      76  73  91 CALM      29.98F                  
WEST ATLANTA   FAIR      79  72  79 NW3       29.98F HX  82           
GAINESVILLE    FAIR      78  72  81 W5        30.01F HX  80           
CARTERSVILLE   FAIR      75  73  93 CALM      30.00S                  
BLAIRSVILLE    MOCLDY    69  68  96 CALM      30.06F                  
DECATUR        FAIR      74  69  85 CALM      30.01F                  
CLEMSON        FAIR      77  71  82 NW3       29.96F                  
GREENVILLE     FAIR      77  71  82 CALM      29.95F                  
FLORENCE       NOT AVBL                                               
CHARLESTON     FAIR      80  77  90 SW8       29.93F HX  87           
MYRTLE BEACH   FAIR      80  74  81 SW13      29.91F HX  85           
FAYETTEVILLE   FAIR      82  72  71 SW7       29.87S HX  87           
WILMINGTON     FAIR      81  75  82 SW8       29.88S HX  87           
RALEIGH        FAIR      78  72  81 NE8       29.91R HX  80           
DALTON         FAIR      72  70  94 CALM      30.00F                  
LAWRENCEVILLE  FAIR      78  72  81 W3        29.99S HX  80           
MARIETTA       NOT AVBL                                               
KENNESAW       FAIR      78  71  79 W5        30.01S HX  80           
WINDER         FAIR      81  72  74 NW7       30.00S HX  84           
CANTON         FAIR      77  68  73 CALM      30.02S                  
TOCCOA         FAIR      81  72  74 CALM      29.97F HX  85           
CORNELIA       FAIR      74  74 100 NE3       30.00F                  
JASPER         FAIR     N/A N/A N/A NW6       30.06R                  
CHARLOTTE      MOCLDY    79  72  79 NW5       29.93F HX  82           
$$

GAZ059>098-102>109-200600-
OTHER STATIONS
  
CITY           SKY/WX    TMP DP  RH WIND       PRES   REMARKS
AUGUSTA-BUSH   FAIR      77  75  93 CALM      29.91F                  
AUGUSTA-DANIEL FAIR      84  74  71 CALM      29.93F HX  91           
COLUMBUS       FAIR      83  72  69 N6        29.96S HX  88           
MACON          FAIR      79  75  87 W5        29.94F HX  83           
ROBINS AFB     FAIR      79  75  87 W5        29.94F HX  83           
GREENSBORO     FAIR      79  73  83 CALM      29.92F HX  82           
THOMSON        FAIR      77  75  91 CALM      29.98F                  
SANDERSVILLE   NOT AVBL                                               
THOMASTON      FAIR      77  68  73 N3        29.99S                  
BUTLER           N/A     81  71  72 NW6       29.97F HX  84           
LAGRANGE       FAIR      78  74  86 CALM      29.99F HX  81           
MILLEDGEVILLE  FAIR      79  75  89 CALM      29.94F HX  82           
CARROLLTON     FAIR      75  69  80 NW3       30.05F                  
AMERICUS       FAIR      79  70  73 W3        29.97F HX  81           
CORDELE        FAIR      79  74  87 CALM      29.96S HX  82           
SAVANNAH       FAIR      79  73  82 SW6       29.95F HX  82           
NEW BERN       FAIR      82  77  84 NW9G17    29.88R HX  90           
HUNTSVILLE     MOCLDY    77  70  79 CALM      30.01F                  
$$

GAZ099>101-110>166-200600-
OTHER STATIONS
  
CITY           SKY/WX    TMP DP  RH WIND       PRES   REMARKS
VALDOSTA       FAIR      76  75  97 S5        29.95F                  
ALMA           FAIR      78  74  87 S3        29.95F HX  81           
ST SIMONS      FAIR      79  72  79 SW10      29.96S HX  82           
FT STEWART     FAIR      77  73  86 S3        29.93F                  
ALBANY         FAIR      81  76  84 W3        29.96S HX  87           
HUNTER AFB     FAIR      79  72  79 S6        29.92F HX  82           
MOODY AFB      FAIR      77  74  92 S6        29.94F                  
BRUNSWICK      FAIR      77  72  83 SW6       29.97S                  
BAINBRIDGE     FAIR      81  73  78 W3        29.95F HX  85           
MOULTRIE       FAIR      79  77  94 CALM      29.96S HX  83           
VIDALIA        FAIR      79  72  78 CALM      29.95F HX  82           
WAYCROSS       FAIR      77  74  90 SW3       29.95F                  
DOUGLAS        FAIR      77  77 100 CALM      29.96F                  
TIFTON         FAIR      79  75  88 S3        29.95S HX  83           
HAZELHURST     FAIR      80  73  81 CALM      29.94F HX  84           
COLUMBIA       FAIR      80  78  94 S7        29.90F HX  88           
RALEIGH        FAIR      78  72  81 NE8       29.91R HX  80           
GREENSBORO     FAIR      81  70  69 N7        29.92R HX  84           
HICKORY        FAIR      79  70  74 NW7       29.95F HX  82           
ASHEVILLE      MOCLDY    74  69  85 N8        30.06S                  
KNOXVILLE      FAIR      77  70  79 S3        29.99S                  
NASHVILLE      CLOUDY    80  69  69 SW3       29.99S HX  83           
JACKSONMS      FAIR      78  75  90 CALM      29.99S HX  81           
TUPELO         NOT AVBL                                               
GREENWOOD      MOCLDY    75  73  93 VRB7      30.00R                  
MERIDIAN       FAIR      79  76  90 CALM      29.99S HX  83           
NEW ORLEANS    MOCLDY    81  78  91 SE7       29.97S HX  89           
$$